STARLINK-34004, 63941

Orbit data source: Space-Track

STARLINK-34004, 63941 is a payload satellite owned by SpaceX/Seattle (US) in LEO that was launched on Tue, 13 May 2025 UTC via an FALCON 9 launch vehicle from the Air Force Western Test Range (AFWTR). Payload-class satellites include a variety of spacecraft equipped with specific instruments for various scientific and technological missions. These include communications satellites like Starlink; space stations such as the ISS; scientific satellites like the Hubble; Earth observation satellites from companies like Planet Labs, Umbra, and HawkEye 360; GPS; miniature CubeSats for education and research; and military/defense satellites.

Loading next visibility...
Identifier
63941, 2025-098R
Orbit
LEO
Country
Flag of USUS
Related business
Manufacturer
SpaceX/Seattle
Mission
Operational Commercial Communications
Bus & Motor
STARLINK V2MO, Unknown motor
Mass
575 kg wet, ~530 kg dry
Launch date (UTC)
2025-05-13 (7 months ago)
Launch vehicle
FALCON 9
Launch site
Air Force Western Test Range (AFWTR)
Object type
Payload
Rocket body
Debris
Shape & HBR
Box + 2 Pan, 17.7 m
Radar Cross Section
36.964 m², Large (>1 m²)

Expand to show TLE details & history
Last TLE update: 10 hours ago

TLE from 10 hours ago
0 STARLINK-34004
1 63941U 25098R   25349.77157938  .00003310  00000-0  28514-3 0  9997
2 63941  70.0004 125.9834 0003056 270.2501  89.8308 14.98321410 33981
Epoch: 2025-12-15T18:31Z
TLE epoch observation values (Epoch: 2025-12-15T18:31:04.458Z)
Latitude
-0.00001°
Longitude
123.54946°
Altitude
574.501 km
Speed
7.574 km/s
True Right ascension
08h 23m 56s
True Declination
0° 00' 00"
Sunlit
Object was in full shadow at epoch
Visualization orbit readout
Latitude
Unknown
Longitude
Unknown
Altitude
Unknown
Speed
Unknown
Apparent Right ascension
Unknown
Apparent Declination
Unknown
Sunlit
N/A
Visualization observer readout
Local Sidereal Time
03:12:44
Azimuth
Unknown
Elevation
Unknown
Doppler factor
Unknown
Orbital elements
Apogee altitude
572.154 km
Perigee altitude
567.907 km
Semi-major axis
6,948.168 km
Eccentricity
0.00031
Inclination
70.0004°
RAAN
125.9834°
Arg. of periapsis
270.2501°
True anomaly
89.86582°
Mean anomaly
89.8308°
Eccentric anomaly
89.84831°
Mean motion
3.74747 °/min
Orbital period
96.06 mins
BSTAR
0.00028514
Loading maneuver chart data...
Computing Atmospheric mass density...
Loading historical data...
Loading historical data...
Loading historical data...
Loading historical data...
Loading historical data...
Loading historical data...
Loading historical data...

Documentation

Showing up to 5 results
|